Weather History for KPNA - October, 2013

Change the Weather History Date:

Wednesday, October 30, 2013

  Actual Average (KBPI) Record (KBPI)
Temperature  
Mean Temperature 28 °F 32 °F  
Max Temperature 33 °F 48 °F 63 °F (2001)
Min Temperature 24 °F 17 °F -1 °F (1991)
Degree Days  
Heating Degree Days 36 33  
Month to date heating degree days 797  
Since 1 July heating degree days 1548  
Cooling Degree Days 0 0  
Month to date cooling degree days 0  
Year to date cooling degree days 35  
Moisture  
Dew Point 27 °F    
Average Humidity 91    
Maximum Humidity 100    
Minimum Humidity 75    
Precipitation  
Precipitation 0.00 in 0.01 in 0.11 in (2000)
Month to date precipitation 0.52  
Year to date precipitation 5.96  
Sea Level Pressure  
Sea Level Pressure 29.93 in    
Wind  
Wind Speed 4 mph (WNW)    
Max Wind Speed 17 mph    
Max Gust Speed 22 mph    
Visibility 7 miles    
Events Snow    
T = Trace of Precipitation, MM = Missing Value Source: NWS Daily Summary

Daily Weather History Graph

Daily Weather History Graph

Search for Another Location

Airport or City:

Trip Planner

Search our weather history database for the weather conditions in past years. The results will help you decide how hot, cold, wet, or windy it might be!

Date:

Astronomy

Oct. 30, 2013 Rise Set
Actual Time 7:51 AM MDT 6:13 PM MDT
Civil Twilight 7:21 AM MDT 6:43 PM MDT
Nautical Twilight 6:48 AM MDT 7:16 PM MDT
Astronomical Twilight 6:15 AM MDT 7:49 PM MDT
Moon 3:37 AM MDT (10/30) 4:05 PM MDT (10/30)
Length of Visible Light 11h 21m
Length of Day
10h 22m
Waning Crescent, 16% of the Moon is Illuminated
Oct 30
Waning Crescent
Nov 3
New
Nov 9
First Quarter
Nov 17
Full
Nov 25
Last Quarter

Hourly Weather History & Observations

Time (MDT) Temp. Windchill Dew Point Humidity Pressure Visibility Wind Dir Wind Speed Gust Speed Precip Events Conditions
12:15 AM 28.4 °F 23.3 °F 26.6 °F 93% 29.91 in 10.0 mi West 4.6 mph - N/A   Overcast
12:35 AM 28.4 °F 23.3 °F 26.6 °F 93% 29.92 in 10.0 mi West 4.6 mph - N/A   Overcast
12:55 AM 28.4 °F 24.6 °F 26.6 °F 93% 29.92 in 10.0 mi West 3.5 mph - N/A   Overcast
1:15 AM 28.4 °F - 26.6 °F 93% 29.91 in 10.0 mi Calm Calm - N/A   Overcast
1:35 AM 28.4 °F 22.2 °F 28.4 °F 100% 29.91 in 10.0 mi North 5.8 mph - N/A   Overcast
1:55 AM 28.4 °F - 26.6 °F 93% 29.92 in 10.0 mi Calm Calm - N/A   Overcast
2:15 AM 28.4 °F - 26.6 °F 93% 29.92 in 10.0 mi Calm Calm - N/A   Overcast
2:35 AM 28.4 °F - 26.6 °F 93% 29.92 in 10.0 mi Calm Calm - N/A Snow Light Snow
2:55 AM 28.4 °F - 26.6 °F 93% 29.91 in 10.0 mi Calm Calm - N/A   Overcast
3:15 AM 26.6 °F 22.6 °F 26.6 °F 100% 29.91 in 10.0 mi West 3.5 mph - N/A   Overcast
3:35 AM 24.8 °F - 24.8 °F 100% 29.91 in 10.0 mi Calm Calm - N/A Snow Light Snow
3:55 AM 24.8 °F - 24.8 °F 100% 29.91 in 5.0 mi Calm Calm - N/A Snow Light Snow
4:15 AM 26.6 °F - 26.6 °F 100% 29.91 in 1.8 mi Calm Calm - N/A Snow Light Snow
4:35 AM 26.6 °F - 26.6 °F 100% 29.90 in 1.0 mi Calm Calm - N/A Snow Light Snow
4:55 AM 26.6 °F 22.6 °F 26.6 °F 100% 29.90 in 1.8 mi ENE 3.5 mph - N/A Snow Light Snow
5:15 AM 26.6 °F - 26.6 °F 100% 29.89 in 1.5 mi Calm Calm - N/A Snow Light Snow
5:35 AM 26.6 °F - 26.6 °F 100% 29.90 in 1.8 mi Calm Calm - N/A Snow Light Snow
5:55 AM 26.6 °F - 26.6 °F 100% 29.90 in 1.5 mi Calm Calm - N/A Snow Light Snow
6:15 AM 26.6 °F - 26.6 °F 100% 29.90 in 2.0 mi Calm Calm - N/A Snow Light Snow
6:35 AM 26.6 °F - 26.6 °F 100% 29.90 in 1.5 mi Calm Calm - N/A Snow Light Snow
6:55 AM 26.6 °F - 26.6 °F 100% 29.90 in 2.0 mi Calm Calm - N/A Snow Light Snow
7:15 AM 26.6 °F - 26.6 °F 100% 29.90 in 3.0 mi Calm Calm - N/A Snow Light Snow
7:35 AM 26.6 °F - 26.6 °F 100% 29.90 in 4.0 mi Calm Calm - N/A Snow Light Snow
7:55 AM 26.6 °F - 26.6 °F 100% 29.91 in 2.0 mi Calm Calm - N/A Snow Light Snow
8:15 AM 26.6 °F - 26.6 °F 100% 29.91 in 1.0 mi Calm Calm - N/A Snow Light Snow
8:35 AM 26.6 °F - 26.6 °F 100% 29.92 in 3.0 mi Calm Calm - N/A Snow Light Snow
8:55 AM 26.6 °F - 26.6 °F 100% 29.92 in 2.5 mi Calm Calm - N/A Snow Light Snow
9:15 AM 26.6 °F 22.6 °F 26.6 °F 100% 29.92 in 5.0 mi ESE 3.5 mph - N/A   Overcast
9:35 AM 26.6 °F - 26.6 °F 100% 29.93 in 7.0 mi Calm Calm - N/A   Overcast
9:55 AM 28.4 °F - 28.4 °F 100% 29.93 in 10.0 mi Calm Calm - N/A   Overcast
10:15 AM 30.2 °F - 28.4 °F 93% 29.93 in 7.0 mi Calm Calm - N/A   Overcast
10:35 AM 30.2 °F - 28.4 °F 93% 29.93 in 7.0 mi Calm Calm - N/A   Overcast
10:55 AM 30.2 °F - 28.4 °F 93% 29.93 in 10.0 mi Calm Calm - N/A   Overcast
11:15 AM 30.2 °F - 28.4 °F 93% 29.93 in 10.0 mi Calm Calm - N/A   Overcast
11:35 AM 30.2 °F - 28.4 °F 93% 29.93 in 5.0 mi Calm Calm - N/A Snow Light Snow
11:55 AM 30.2 °F - 28.4 °F 93% 29.93 in 1.2 mi Calm Calm - N/A Snow Light Snow
12:15 PM 32.0 °F - 30.2 °F 93% 29.93 in 1.8 mi Calm Calm - N/A Snow Light Snow
12:35 PM 32.0 °F - 30.2 °F 93% 29.93 in 5.0 mi Calm Calm - N/A Snow Light Snow
12:55 PM 32.0 °F - 30.2 °F 93% 29.93 in 3.0 mi Calm Calm - N/A Snow Light Snow
1:15 PM 32.0 °F - 28.4 °F 87% 29.93 in 4.0 mi Calm Calm - N/A Snow Light Snow
1:35 PM 32.0 °F 26.4 °F 30.2 °F 93% 29.92 in 5.0 mi West 5.8 mph - N/A Snow Light Snow
1:55 PM 32.0 °F 26.4 °F 30.2 °F 93% 29.92 in 3.0 mi West 5.8 mph - N/A Snow Light Snow
2:15 PM 32.0 °F 25.6 °F 30.2 °F 93% 29.91 in 1.5 mi WNW 6.9 mph - N/A Snow Light Snow
2:35 PM 32.0 °F 25.6 °F 30.2 °F 93% 29.90 in 1.0 mi WNW 6.9 mph - N/A Snow Light Snow
2:55 PM 32.0 °F 24.2 °F 30.2 °F 93% 29.90 in 7.0 mi West 9.2 mph - N/A Snow Light Snow
3:15 PM 33.8 °F 26.4 °F 28.4 °F 81% 29.90 in 5.0 mi WNW 9.2 mph - N/A Snow Light Snow
3:35 PM 33.8 °F 23.9 °F 26.6 °F 75% 29.90 in 10.0 mi WNW 15.0 mph - N/A   Overcast
3:55 PM 33.8 °F 24.8 °F 28.4 °F 81% 29.91 in 10.0 mi NW 12.7 mph - N/A   Overcast
4:15 PM 33.8 °F 24.8 °F 28.4 °F 81% 29.91 in 10.0 mi WNW 12.7 mph 18.4 mph N/A   Overcast
4:35 PM 33.8 °F 23.5 °F 26.6 °F 75% 29.92 in 10.0 mi NW 16.1 mph - N/A   Overcast
4:55 PM 33.8 °F 23.5 °F 26.6 °F 75% 29.92 in 10.0 mi NW 16.1 mph - N/A   Overcast
5:15 PM 33.8 °F 23.9 °F 26.6 °F 75% 29.92 in 10.0 mi WNW 15.0 mph - N/A   Overcast
6:55 PM 32.0 °F 24.2 °F 26.6 °F 80% 29.95 in 10.0 mi WNW 9.2 mph - N/A   Overcast
7:15 PM 32.0 °F 22.1 °F 26.6 °F 80% 29.95 in 10.0 mi WNW 13.8 mph - N/A   Overcast
7:35 PM 32.0 °F 22.5 °F 26.6 °F 80% 29.95 in 10.0 mi NW 12.7 mph 16.1 mph N/A   Overcast
7:55 PM 30.2 °F 20.8 °F 26.6 °F 86% 29.97 in 10.0 mi WNW 11.5 mph - N/A   Overcast
8:15 PM 30.2 °F 21.9 °F 26.6 °F 86% 29.97 in 10.0 mi NW 9.2 mph - N/A   Mostly Cloudy
8:35 PM 30.2 °F 20.8 °F 26.6 °F 86% 29.97 in 10.0 mi NW 11.5 mph - N/A   Scattered Clouds
8:55 PM 30.2 °F 21.9 °F 26.6 °F 86% 29.97 in 10.0 mi WNW 9.2 mph - N/A   Mostly Cloudy
9:15 PM 30.2 °F 21.3 °F 24.8 °F 80% 29.97 in 10.0 mi WNW 10.4 mph - N/A   Overcast
9:35 PM 30.2 °F 19.8 °F 24.8 °F 80% 29.97 in 10.0 mi WNW 13.8 mph - N/A   Overcast
9:55 PM 30.2 °F 19.8 °F 26.6 °F 86% 29.97 in 10.0 mi West 13.8 mph 19.6 mph N/A   Overcast
10:15 PM 30.2 °F 19.8 °F 26.6 °F 86% 29.97 in 10.0 mi WNW 13.8 mph - N/A   Overcast
10:35 PM 30.2 °F 19.3 °F 24.8 °F 80% 29.97 in 10.0 mi WNW 15.0 mph - N/A   Overcast
10:55 PM 30.2 °F 20.2 °F 24.8 °F 80% 29.97 in 10.0 mi WNW 12.7 mph - N/A   Overcast
11:15 PM 30.2 °F 19.8 °F 26.6 °F 86% 29.97 in 10.0 mi WNW 13.8 mph - N/A   Overcast
11:35 PM 30.2 °F 18.5 °F 26.6 °F 86% 29.97 in 10.0 mi WNW 17.3 mph 21.9 mph N/A   Overcast
11:55 PM 30.2 °F 19.8 °F 26.6 °F 86% 29.97 in 10.0 mi WNW 13.8 mph 20.7 mph N/A   Overcast